Regional Weather Roundup
Issued by NWS

Home | Current Version | Previous Version | Graphics & Text | Print | Product List | Glossary On
Versions: 1 2 3 4 5 6 7 8 9 10 11 12 13 14 15 16 17 18 19 20 21 22 23 24 25 26 27 28 29 30 31 32 33 34 35 36 37 38 39 40 41 42 43 44 45 46 47 48 49 50
000
ASUS43 KTOP 060708
RWRKS

WEATHER ROUNDUP FOR KANSAS
NATIONAL WEATHER SERVICE GOODLAND KS
200 AM CDT FRI MAY 06 2016

NOTE:  "FAIR" INDICATES FEW OR NO CLOUDS BELOW 12,000 FEET WITH NO
SIGNIFICANT WEATHER AND/OR OBSTRUCTIONS TO VISIBILITY.

KSZ001>006-013>018-027>032-041>047-060800-
NORTHWEST KANSAS

CITY           SKY/WX    TMP DP  RH WIND       PRES   REMARKS
GOODLAND       CLOUDY    54  46  74 S14       30.04F
HAYS           CLOUDY    55  41  58 S3        30.06R
HILL CITY      CLEAR     59  46  62 S3        30.05R
RUSSELL        CLOUDY    60  45  57 S10       30.04R
$$

KSZ061>065-074>080-084>089-060800-
SOUTHWEST KANSAS

CITY           SKY/WX    TMP DP  RH WIND       PRES   REMARKS
DODGE CITY     CLOUDY    56  42  59 S12       30.06S
ELKHART          N/A     54  46  74 SE12        N/A
GARDEN CITY    CLOUDY    56  44  64 SE13      30.05S
GREAT BEND     CLOUDY    54  43  66 SW5       30.06S
LIBERAL        CLOUDY    57  46  67 SE12      30.06S
PRATT          CLEAR     51  43  73 S5        30.07S
$$

KSZ066>073-081>083-090>101-060800-
SOUTHEAST KANSAS

CITY           SKY/WX    TMP DP  RH WIND       PRES   REMARKS
CHANUTE        CLEAR     51  47  86 CALM      30.06F
COFFEYVILLE    CLEAR     52  49  89 CALM      30.07S
HUTCHINSON     CLEAR     54  44  69 CALM      30.06S
MEDICINE LODGE   N/A     55  47  74 CALM      30.06S
NEWTON         CLEAR     54  39  58 SE8       30.09S
PARSONS        CLEAR     50  49  96 CALM      30.08S
WICHITA INTL   CLEAR     58  44  60 SE5       30.06S
WICHITA JABRA  CLEAR     56  45  66 S6        30.06F
WICHITA MCCONL CLEAR     58  44  61 S6        30.06F
WINFIELD       CLEAR     54  46  74 CALM      30.41F
$$

KSZ007>012-019>026-033>040-048>060-102>105-060800-
NORTHEAST KANSAS

CITY           SKY/WX    TMP DP  RH WIND       PRES   REMARKS
CONCORDIA      CLEAR     58  41  53 S10       30.04S
EMPORIA        CLEAR     53  45  74 S7        30.06S
LAWRENCE       PTCLDY    47  45  93 CALM      30.06S
MANHATTAN      CLEAR     50  43  77 W5        30.05F
MARYSVILLE     CLEAR     54  45  71 S6        30.04S
OLATHE IND     PTCLDY    51  43  74 S5        30.07S
OLATHE EXE     PTCLDY    53  43  68 CALM      30.06S
SALINA         CLEAR     52  46  80 S7        30.05S
TOPEKA BILLARD CLEAR     52  50  93 CALM      30.05F
TOPEKA FORBES  CLEAR     52  46  80 CALM      30.05F
$$




USA.gov is the U.S. government's official web portal to all federal, state and local government web resources and services.